This is the latest recevied weather packets stored in our database for station/object KR4CWL-13. If no packets are shown the sender has not sent any weather packets the latest 10 day(s).
| Time | Temp. | Humidity | Pressure | Rain* | Wind** | Luminosity | Snow |
|---|---|---|---|---|---|---|---|
| 1777304615 | 19.44° C | 49% | 1015.6 hPa | 0 mm | - | - | - |
| 1777304015 | 18.89° C | 48% | 1015.6 hPa | 0 mm | - | - | - |
| 1777303415 | 19.44° C | 48% | 1015.6 hPa | 0 mm | - | - | - |
| 1777302815 | 18.89° C | 51% | 1015.6 hPa | 0 mm | - | - | - |
| 1777302215 | 18.89° C | 51% | 1015.6 hPa | 0 mm | - | - | - |
| 1777301615 | 18.33° C | 51% | 1015.9 hPa | 0 mm | - | - | - |
| 1777301015 | 17.78° C | 51% | 1015.9 hPa | 0 mm | - | - | - |
| 1777300415 | 17.78° C | 57% | 1015.9 hPa | 0 mm | - | - | - |
| 1777299815 | 17.78° C | 57% | 1015.9 hPa | 0 mm | - | - | - |
| 1777299214 | 17.22° C | 61% | 1015.9 hPa | 0 mm | - | - | - |
| 1777298615 | 16.67° C | 64% | 1015.6 hPa | 0 mm | - | - | - |
| 1777298014 | 16.11° C | 62% | 1015.9 hPa | 0 mm | - | - | - |
| 1777297414 | 16.11° C | 66% | 1015.6 hPa | 0 mm | - | - | - |
| 1777296814 | 16.11° C | 69% | 1015.6 hPa | 0 mm | - | - | - |
| 1777296214 | 15° C | 69% | 1015.6 hPa | 0 mm | - | - | - |
| 1777295614 | 14.44° C | 73% | 1015.6 hPa | 0 mm | - | - | - |
| 1777295014 | 12.22° C | 81% | 1015.6 hPa | 0 mm | - | - | - |
| 1777294414 | 12.22° C | 84% | 1015.6 hPa | 0 mm | - | - | - |
| 1777293814 | 11.67° C | 85% | 1015.6 hPa | 0 mm | - | - | - |
| 1777293214 | 11.67° C | 86% | 1015.6 hPa | 0 mm | - | - | - |
| 1777292614 | 11.67° C | 87% | 1015.6 hPa | 0 mm | - | - | - |
| 1777292014 | 11.11° C | 87% | 1015.6 hPa | 0 mm | - | - | - |
| 1777291414 | 11.11° C | 88% | 1015.6 hPa | 0 mm | - | - | - |
| 1777290814 | 11.11° C | 87% | 1015.6 hPa | 0 mm | - | - | - |
| 1777290214 | 10.56° C | 87% | 1015.6 hPa | 0 mm | - | - | - |
* Rain since midnight (hover to see other rain measurements)
** Current wind speed in m/s (hover to see current wind gust speed)